EW2235 Weather Reports


Display with metric or nautical units.
time (UTC)temp
F
wind
direction
speed
MPH
gust
MPH
rain 1hr
in
rain 24hr
in
rain mn
in
humidity
%
barometer
mb
20200409050314 57 136 1.0 2.0 0.00 0.00 0.00 52 1019.3
20200409045830 57 346 1.0 3.0 0.00 0.00 0.00 53 1019.3
20200409045325 58 257 1.0 2.0 0.00 0.00 0.00 52 1019.3
20200409044824 58 134 1.0 2.0 0.00 0.00 0.00 52 1019.3
20200409044323 58 204 1.0 2.0 0.00 0.00 0.00 52 1019.3
20200409043819 58 311 0.0 1.0 0.00 0.00 0.00 51 1019.3
20200409043317 59 59 1.0 2.0 0.00 0.00 0.00 50 1019.3
20200409042812 59 123 1.0 2.0 0.00 0.00 0.00 50 1019.2
20200409042328 59 130 1.0 2.0 0.00 0.00 0.00 50 1019.2
20200409041827 59 118 0.0 2.0 0.00 0.00 0.00 50 1019.1
20200409041322 60 68 1.0 4.0 0.00 0.00 0.00 49 1019.1
20200409040822 60 309 1.0 4.0 0.00 0.00 0.00 49 1019.0
20200409040318 60 330 0.0 2.0 0.00 0.00 0.00 49 1019.0
20200409035814 60 250 1.0 4.0 0.00 0.00 0.00 48 1018.9
20200409035331 61 295 1.0 4.0 0.00 0.00 0.00 48 1018.9
20200409034828 61 96 0.0 3.0 0.00 0.00 0.00 48 1018.8
20200409034323 61 110 0.0 3.0 0.00 0.00 0.00 48 1018.7
20200409033819 61 191 1.0 3.0 0.00 0.00 0.00 47 1018.7
20200409033321 61 108 1.0 3.0 0.00 0.00 0.00 47 1018.6
20200409032817 62 303 0.0 3.0 0.00 0.00 0.00 47 1018.6
20200409032313 62 323 1.0 3.0 0.00 0.00 0.00 46 1018.6
20200409031830 62 106 1.0 3.0 0.00 0.00 0.00 46 1018.6
20200409031326 63 352 1.0 3.0 0.00 0.00 0.00 46 1018.5
20200409030822 63 257 1.0 3.0 0.00 0.00 0.00 45 1018.4
20200409030318 63 105 1.0 3.0 0.00 0.00 0.00 45 1018.3
20200409025818 63 145 1.0 4.0 0.00 0.00 0.00 44 1018.3
20200409025314 64 77 1.0 4.0 0.00 0.00 0.00 44 1018.3
20200409024812 64 51 1.0 3.0 0.00 0.00 0.00 44 1018.2
20200409024328 64 257 1.0 3.0 0.00 0.00 0.00 44 1018.2
20200409023824 65 49 1.0 4.0 0.00 0.00 0.00 43 1018.2
20200409023321 65 313 1.0 4.0 0.00 0.00 0.00 42 1018.2
20200409022817 66 324 1.0 5.0 0.00 0.00 0.00 42 1018.1
20200409022317 66 352 0.0 5.0 0.00 0.00 0.00 41 1018.1
20200409021815 66 131 1.0 4.0 0.00 0.00 0.00 41 1018.1
20200409021311 67 110 1.0 4.0 0.00 0.00 0.00 40 1018.1
20200409020827 67 309 1.0 4.0 0.00 0.00 0.00 40 1018.1
20200409020324 68 83 1.0 5.0 0.00 0.00 0.00 40 1018.0
20200409015818 68 93 1.0 5.0 0.00 0.00 0.00 39 1018.0
20200409015314 69 113 1.0 5.0 0.00 0.00 0.00 39 1018.0
20200409014816 69 317 1.0 4.0 0.00 0.00 0.00 39 1018.1
20200409014312 69 56 1.0 5.0 0.00 0.00 0.00 38 1018.1
20200409013828 70 101 2.0 5.0 0.00 0.00 0.00 38 1018.1
20200409013325 70 51 1.0 5.0 0.00 0.00 0.00 38 1018.1
20200409012821 71 145 1.0 6.0 0.00 0.00 0.00 38 1018.2
20200409012317 71 165 1.0 6.0 0.00 0.00 0.00 37 1018.1
20200409011815 72 51 1.0 4.0 0.00 0.00 0.00 37 1018.1
20200409011315 72 124 1.0 3.0 0.00 0.00 0.00 37 1018.2
20200409010811 72 96 1.0 6.0 0.00 0.00 0.00 37 1018.2
20200409010327 72 314 2.0 6.0 0.00 0.00 0.00 36 1018.2
20200409005823 72 318 2.0 6.0 0.00 0.00 0.00 37 1018.2
20200409005319 73 308 2.0 5.0 0.00 0.00 0.00 36 1018.2
20200409004816 73 181 1.0 6.0 0.00 0.00 0.00 36 1018.2
20200409004312 73 350 1.0 6.0 0.00 0.00 0.00 35 1018.2
20200409003812 73 337 2.0 5.0 0.00 0.00 0.00 36 1018.2
20200409003330 73 89 2.0 7.0 0.00 0.00 0.00 35 1018.2
20200409002826 74 131 2.0 7.0 0.00 0.00 0.00 34 1018.3
20200409002321 74 140 1.0 5.0 0.00 0.00 0.00 35 1018.3
20200409001818 74 93 2.0 5.0 0.00 0.00 0.00 34 1018.3
20200409001313 74 58 2.0 5.0 0.00 0.00 0.00 34 1018.3
20200409000829 74 120 2.0 5.0 0.00 0.00 0.00 34 1018.4
20200409000329 74 273 2.0 7.0 0.00 0.00 0.00 34 1018.3
20200408235826 74 119 2.0 7.0 0.00 0.00 0.00 34 1018.4
20200408235322 74 160 1.0 7.0 0.00 0.00 0.00 34 1018.4
20200408234819 73 121 2.0 7.0 0.00 0.00 0.00 34 1018.4
20200408234314 73 310 1.0 6.0 0.00 0.00 0.00 34 1018.5
20200408233810 73 103 2.0 6.0 0.00 0.00 0.00 35 1018.5
20200408233329 73 303 2.0 6.0 0.00 0.00 0.00 35 1018.5
20200408232829 73 48 2.0 7.0 0.00 0.00 0.00 34 1018.6
20200408232325 73 84 3.0 7.0 0.00 0.00 0.00 34 1018.6
20200408231822 73 115 1.0 8.0 0.00 0.00 0.00 36 1018.7
20200408231317 73 26 2.0 8.0 0.00 0.00 0.00 36 1018.7
20200408230813 72 58 2.0 6.0 0.00 0.00 0.00 37 1018.8
20200408230329 72 70 1.0 7.0 0.00 0.00 0.00 38 1018.9
20200408225826 72 37 3.0 7.0 0.00 0.00 0.00 37 1019.0
20200408225326 72 60 3.0 6.0 0.00 0.00 0.00 36 1019.0
20200408224822 72 309 2.0 6.0 0.00 0.00 0.00 39 1019.1
20200408224318 71 81 2.0 7.0 0.00 0.00 0.00 38 1019.2
20200408223814 71 306 2.0 7.0 0.00 0.00 0.00 39 1019.2
20200408223313 71 99 2.0 6.0 0.00 0.00 0.00 40 1019.2
20200408222828 71 58 2.0 6.0 0.00 0.00 0.00 40 1019.3
20200408222324 71 181 2.0 6.0 0.00 0.00 0.00 42 1019.4
20200408221825 71 1 2.0 8.0 0.00 0.00 0.00 42 1019.4
20200408221320 71 52 4.0 8.0 0.00 0.00 0.00 42 1019.5
20200408220816 70 312 1.0 6.0 0.00 0.00 0.00 44 1019.5
20200408220312 70 266 2.0 6.0 0.00 0.00 0.00 42 1019.6
20200408215827 69 126 2.0 5.0 0.00 0.00 0.00 44 1019.7
20200408215323 69 89 2.0 5.0 0.00 0.00 0.00 44 1019.8
20200408214821 69 72 1.0 6.0 0.00 0.00 0.00 45 1019.9
20200408214321 69 320 3.0 8.0 0.00 0.00 0.00 44 1019.9
20200408213817 68 45 2.0 6.0 0.00 0.00 0.00 44 1020.0
20200408213315 68 124 4.0 6.0 0.00 0.00 0.00 44 1020.1
20200408212830 68 306 2.0 6.0 0.00 0.00 0.00 45 1020.3
20200408212326 68 277 1.0 5.0 0.00 0.00 0.00 46 1020.3
20200408211825 67 263 1.0 5.0 0.00 0.00 0.00 45 1020.4
20200408211320 67 116 1.0 5.0 0.00 0.00 0.00 46 1020.4
20200408210820 67 92 1.0 5.0 0.00 0.00 0.00 49 1020.4
20200408210316 66 295 1.0 8.0 0.00 0.00 0.00 49 1020.4
20200408205811 66 243 3.0 8.0 0.00 0.00 0.00 47 1020.5
20200408205327 66 328 2.0 7.0 0.00 0.00 0.00 49 1020.5
20200408204825 65 83 3.0 8.0 0.00 0.00 0.00 49 1020.6
20200408204321 65 321 1.0 8.0 0.00 0.00 0.00 49 1020.6
20200408203817 65 91 1.0 6.0 0.00 0.00 0.00 49 1020.7
20200408203318 65 90 1.0 6.0 0.00 0.00 0.00 49 1020.7
20200408202814 65 6 2.0 6.0 0.00 0.00 0.00 49 1020.8
20200408202330 65 147 2.0 6.0 0.00 0.00 0.00 49 1020.8
20200408201828 64 106 1.0 3.0 0.00 0.00 0.00 52 1020.8
20200408201325 64 307 1.0 5.0 0.00 0.00 0.00 52 1020.9
20200408200820 64 48 2.0 5.0 0.00 0.00 0.00 50 1020.9
20200408200316 63 92 2.0 5.0 0.00 0.00 0.00 51 1021.0
20200408195815 62 288 2.0 5.0 0.00 0.00 0.00 52 1021.1
20200408195311 62 82 2.0 7.0 0.00 0.00 0.00 52 1021.1
20200408194829 63 69 3.0 7.0 0.00 0.00 0.00 51 1021.2
20200408194325 61 220 1.0 5.0 0.00 0.00 0.00 53 1021.3
20200408193821 61 162 1.0 5.0 0.00 0.00 0.00 53 1021.4
20200408193318 61 70 2.0 4.0 0.00 0.00 0.00 53 1021.5
20200408192814 61 306 1.0 4.0 0.00 0.00 0.00 53 1021.6
20200408192314 61 66 1.0 4.0 0.00 0.00 0.00 55 1021.7
20200408191812 60 91 1.0 4.0 0.00 0.00 0.00 56 1021.8
20200408191328 59 276 1.0 6.0 0.00 0.00 0.00 59 1021.8
20200408190824 59 313 2.0 6.0 0.00 0.00 0.00 57 1022.0
20200408190320 59 94 1.0 5.0 0.00 0.00 0.00 58 1022.0
20200408185815 59 99 1.0 5.0 0.00 0.00 0.00 59 1022.2
20200408185311 58 108 1.0 6.0 0.00 0.00 0.00 61 1022.3
20200408184813 57 72 1.0 6.0 0.00 0.00 0.00 62 1022.4
20200408184328 56 106 1.0 5.0 0.00 0.00 0.00 63 1022.5
20200408183824 56 323 2.0 7.0 0.00 0.00 0.00 62 1022.6
20200408183322 57 314 2.0 7.0 0.00 0.00 0.00 62 1022.6
20200408182818 56 83 3.0 7.0 0.00 0.00 0.00 64 1022.5
20200408182314 56 291 1.0 5.0 0.00 0.00 0.00 64 1022.6
20200408181812 56 309 1.0 5.0 0.00 0.00 0.00 63 1022.7
20200408181311 56 119 2.0 7.0 0.00 0.00 0.00 64 1022.8
20200408180827 55 289 1.0 4.0 0.00 0.00 0.00 67 1022.8
20200408180326 55 331 2.0 4.0 0.00 0.00 0.00 66 1022.8
20200408175820 55 34 1.0 4.0 0.00 0.00 0.00 68 1022.9
20200408175315 54 54 1.0 6.0 0.00 0.00 0.00 69 1022.9
20200408174813 53 58 1.0 6.0 0.00 0.00 0.00 70 1023.0
20200408174329 53 134 0.0 4.0 0.00 0.00 0.00 73 1023.0
20200408173824 52 288 2.0 4.0 0.00 0.00 0.00 73 1023.0
20200408173327 52 313 2.0 4.0 0.00 0.00 0.00 74 1023.1
20200408172823 51 307 1.0 4.0 0.00 0.00 0.00 75 1023.2
20200408172318 51 141 1.0 5.0 0.00 0.00 0.00 76 1023.2
20200408171816 51 298 2.0 5.0 0.00 0.00 0.00 76 1023.2
20200408171311 50 112 2.0 5.0 0.00 0.00 0.00 77 1023.2
20200408170827 50 129 1.0 4.0 0.00 0.00 0.00 77 1023.2
20200408170323 49 117 1.0 4.0 0.00 0.00 0.00 79 1023.1
20200408165823 49 285 2.0 5.0 0.00 0.00 0.00 78 1023.1
20200408165319 50 70 2.0 3.0 0.00 0.00 0.00 79 1023.2
20200408164818 49 97 0.0 4.0 0.00 0.00 0.00 82 1023.2
20200408164313 48 295 0.0 4.0 0.00 0.00 0.00 81 1023.1
20200408163830 48 98 0.0 3.0 0.00 0.00 0.00 82 1023.2
20200408163327 47 79 0.0 4.0 0.00 0.00 0.00 84 1023.1
20200408162822 46 85 2.0 5.0 0.00 0.00 0.00 84 1023.1
20200408162322 47 69 2.0 4.0 0.00 0.00 0.00 84 1023.1
20200408161821 47 53 2.0 4.0 0.00 0.00 0.00 84 1023.0
20200408161316 46 117 1.0 2.0 0.00 0.00 0.00 87 1023.1
20200408160813 45 172 1.0 4.0 0.00 0.00 0.00 87 1023.1
20200408160328 45 231 0.0 5.0 0.00 0.00 0.00 87 1023.1
20200408155823 46 72 1.0 4.0 0.00 0.00 0.00 87 1023.1
20200408155319 45 53 0.0 3.0 0.00 0.00 0.00 88 1023.2
20200408154822 45 337 1.0 4.0 0.00 0.00 0.00 88 1023.2
20200408154317 45 124 1.0 4.0 0.00 0.00 0.00 87 1023.2
20200408153813 45 116 1.0 4.0 0.00 0.00 0.00 89 1023.1
20200408153331 45 140 1.0 3.0 0.00 0.00 0.00 90 1023.0
20200408152827 45 286 0.0 2.0 0.00 0.00 0.00 90 1023.0
20200408152323 44 24 1.0 2.0 0.00 0.00 0.00 91 1022.9
20200408151816 44 58 0.0 2.0 0.00 0.00 0.00 92 1022.9
20200408151315 43 285 0.0 3.0 0.00 0.00 0.00 93 1022.9
20200408150811 43 123 0.0 3.0 0.00 0.00 0.00 94 1022.9
20200408150327 43 116 327.0 1.0 0.00 0.00 0.00 95 1022.9
20200408145823 0 0.0 0.0 0.00 0.00 0.00 1022.9
20200408145319 0 0.0 0.0 0.00 0.00 0.00 1022.9
20200408144817 0 0.0 0.0 0.00 0.00 0.00 1023.0
20200408143857 0 0.0 0.0 0.00 0.00 0.00 1023.0
20200408143334 0 0.0 0.0 0.00 0.00 0.00 1023.1
20200408142822 0 0.0 0.0 0.00 0.00 0.00 1023.0
20200408142317 0 0.0 0.0 0.00 0.00 0.00 1023.0
20200408141856 0 0.0 0.0 0.00 0.00 0.00 1022.9
20200408141357 0 0.0 0.0 0.00 0.00 0.00 1022.9
20200408140825 0 0.0 0.0 0.00 0.00 0.00 1023.0
20200408140321 0 0.0 0.0 0.00 0.00 0.00 1022.9
20200408135817 0 0.0 0.0 0.00 0.00 0.00 1022.9
20200408134857 0 0.0 0.0 0.00 0.00 0.00 1022.9
20200408134325 0 0.0 0.0 0.00 0.00 0.00 1022.9
20200408133821 0 0.0 0.0 0.00 0.00 0.00 1022.7
20200408133322 0 0.0 0.0 0.00 0.00 0.00 1022.7
20200408132321 0 0.0 0.0 0.00 0.00 0.00 1022.5
20200408131811 0 0.0 0.0 0.00 0.00 0.00 1022.6
20200408131327 0 0.0 0.0 0.00 0.00 0.00 1022.6
20200408130823 0 0.0 0.0 0.00 0.00 0.00 1022.6
20200408125821 0 0.0 0.0 0.00 0.00 0.00 1022.6
20200408125312 0 0.0 0.0 0.00 0.00 0.00 1022.6
20200408124830 0 0.0 0.0 0.00 0.00 0.00 1022.6
20200408124326 0 0.0 0.0 0.00 0.00 0.00 1022.5
20200408123847 0 0.0 0.0 0.00 0.00 0.00 1022.5
20200408122811 0 0.0 0.0 0.00 0.00 0.00 1022.6
20200408122328 0 0.0 0.0 0.00 0.00 0.00 1022.6
20200408121826 0 0.0 0.0 0.00 0.00 0.00 1022.6
20200408120825 37 297 0.0 0.0 0.00 0.00 0.00 95 1022.7
20200408120318 37 300 0.0 0.0 0.00 0.00 0.00 95 1022.6
20200408115814 37 300 0.0 0.0 0.00 0.00 0.00 95 1022.4
20200408115329 37 300 0.0 0.0 0.00 0.00 0.00 95 1022.5
20200408114827 37 300 0.0 0.0 0.00 0.00 0.00 95 1022.5
20200408114327 37 300 0.0 0.0 0.00 0.00 0.00 95 1022.5
20200408113822 38 300 0.0 0.0 0.00 0.00 0.00 95 1022.4
20200408113321 38 300 0.0 0.0 0.00 0.00 0.00 95 1022.3
20200408112817 38 300 0.0 0.0 0.00 0.00 0.00 95 1022.3
20200408112312 38 300 0.0 0.0 0.00 0.00 0.00 95 1022.5
20200408111830 38 300 0.0 0.0 0.00 0.00 0.00 95 1022.3
20200408111326 38 300 0.0 0.0 0.00 0.00 0.00 95 1022.3
20200408110826 38 300 0.0 0.0 0.00 0.00 0.00 94 1022.3
20200408110321 38 300 0.0 1.0 0.00 0.00 0.00 94 1022.3
20200408105817 38 300 0.0 1.0 0.00 0.00 0.00 94 1022.2
20200408105313 38 300 0.0 0.0 0.00 0.00 0.00 94 1022.3
20200408104812 38 300 0.0 0.0 0.00 0.00 0.00 94 1022.3
20200408104327 38 300 0.0 0.0 0.00 0.00 0.00 94 1022.3
20200408103823 38 300 0.0 0.0 0.00 0.00 0.00 94 1022.3
20200408103324 39 300 0.0 0.0 0.00 0.00 0.00 94 1022.3
20200408102820 39 300 0.0 0.0 0.00 0.00 0.00 94 1022.3
20200408102316 39 300 0.0 0.0 0.00 0.00 0.00 94 1022.5
20200408101815 39 300 0.0 0.0 0.00 0.00 0.00 94 1022.5
20200408101330 39 300 0.0 0.0 0.00 0.00 0.00 93 1022.6
20200408100826 39 300 0.0 0.0 0.00 0.00 0.00 93 1022.6
20200408100322 40 300 0.0 0.0 0.00 0.00 0.00 93 1022.6
20200408095822 40 300 0.0 1.0 0.00 0.00 0.00 93 1022.6
20200408095318 40 300 0.0 1.0 0.00 0.00 0.00 93 1022.6
20200408094815 40 300 0.0 0.0 0.00 0.00 0.00 93 1022.6
20200408094311 40 300 0.0 1.0 0.00 0.00 0.00 93 1022.5
20200408093827 40 300 0.0 1.0 0.00 0.00 0.00 92 1022.5
20200408093325 40 300 0.0 0.0 0.00 0.00 0.00 92 1022.6
20200408092821 40 300 0.0 1.0 0.00 0.00 0.00 92 1022.5
20200408092323 40 300 0.0 1.0 0.00 0.00 0.00 92 1022.6
20200408091315 41 300 0.0 0.0 0.00 0.00 0.00 91 1022.5
20200408090830 41 300 0.0 0.0 0.00 0.00 0.00 91 1022.6
20200408090327 41 300 0.0 0.0 0.00 0.00 0.00 91 1022.5
20200408085822 41 300 0.0 0.0 0.00 0.00 0.00 91 1022.5
20200408085318 41 300 0.0 0.0 0.00 0.00 0.00 90 1022.5
20200408084820 42 300 0.0 0.0 0.00 0.00 0.00 91 1022.4
20200408084316 42 300 0.0 0.0 0.00 0.00 0.00 91 1022.5
20200408083812 42 300 0.0 1.0 0.00 0.00 0.00 91 1022.6
20200408083329 42 300 0.0 1.0 0.00 0.00 0.00 91 1022.6
20200408082833 42 300 0.0 1.0 0.00 0.00 0.00 90 1022.6
20200408082321 42 300 0.0 1.0 0.00 0.00 0.00 90 1022.6
20200408081819 42 300 0.0 0.0 0.00 0.00 0.00 89 1022.6
20200408081318 42 300 0.0 1.0 0.00 0.00 0.00 90 1022.6
20200408080814 43 300 0.0 1.0 0.00 0.00 0.00 89 1022.6
20200408080330 43 300 0.0 1.0 0.00 0.00 0.00 90 1022.5
20200408075825 42 299 0.0 1.0 0.00 0.00 0.00 89 1022.6
20200408075321 43 99 0.0 1.0 0.00 0.00 0.00 88 1022.6
20200408074819 43 99 0.0 0.0 0.00 0.00 0.00 87 1022.5
20200408074315 43 99 0.0 0.0 0.00 0.00 0.00 86 1022.6
20200408073815 44 99 0.0 1.0 0.00 0.00 0.00 86 1022.5
20200408073312 44 99 0.0 1.0 0.00 0.00 0.00 86 1022.6
20200408072828 44 99 0.0 1.0 0.00 0.00 0.00 86 1022.6
20200408072324 44 33 0.0 1.0 0.00 0.00 0.00 87 1022.6
20200408071822 44 351 0.0 1.0 0.00 0.00 0.00 87 1022.5
20200408071318 44 330 0.0 1.0 0.00 0.00 0.00 86 1022.6
20200408070814 44 330 0.0 1.0 0.00 0.00 0.00 85 1022.5
20200408070314 45 330 0.0 1.0 0.00 0.00 0.00 85 1022.5
20200408065830 45 330 0.0 1.0 0.00 0.00 0.00 85 1022.4
20200408065325 45 25 0.0 1.0 0.00 0.00 0.00 84 1022.4
20200408064823 46 90 0.0 1.0 0.00 0.00 0.00 83 1022.5
20200408064319 46 91 0.0 1.0 0.00 0.00 0.00 82 1022.5
20200408063814 46 91 0.0 1.0 0.00 0.00 0.00 81 1022.4
20200408063313 47 108 0.0 1.0 0.00 0.00 0.00 81 1022.4
20200408062813 47 20 0.0 1.0 0.00 0.00 0.00 80 1022.3
20200408062329 47 20 0.0 3.0 0.00 0.00 0.00 80 1022.4
20200408061826 47 340 1.0 3.0 0.00 0.00 0.00 80 1022.3
20200408061322 48 110 0.0 3.0 0.00 0.00 0.00 79 1022.2
20200408060818 48 24 1.0 3.0 0.00 0.00 0.00 79 1022.2
20200408060334 48 74 1.0 3.0 0.00 0.00 0.00 79 1022.1
20200408055827 48 100 0.0 3.0 0.00 0.00 0.00 79 1022.1
20200408055326 48 100 0.0 2.0 0.00 0.00 0.00 80 1022.2
20200408054825 47 98 0.0 2.0 0.00 0.00 0.00 80 1022.2
20200408054321 47 105 0.0 1.0 0.00 0.00 0.00 80 1022.2
20200408053817 47 341 0.0 1.0 0.00 0.00 0.00 80 1022.2
20200408053314 48 113 0.0 1.0 0.00 0.00 0.00 80 1022.2
20200408052830 47 105 0.0 2.0 0.00 0.00 0.00 80 1022.2
20200408052326 47 43 1.0 2.0 0.00 0.00 0.00 82 1022.1
20200408051828 46 17 0.0 1.0 0.00 0.00 0.00 83 1022.1
20200408051324 46 18 0.0 1.0 0.00 0.00 0.00 83 1022.1
20200408050818 46 49 0.0 1.0 0.00 0.00 0.00 82 1022.2